Terminal Aerodrome Forecast
Issued by NWS

Home | Current Version | Previous Version | Text Only | Print | Product List | Glossary On
Versions: 1 2 3 4 5 6 7 8 9 10 11 12 13 14 15 16 17 18 19 20 21 22 23 24 25 26 27 28 29 30 31 32 33 34 35 36 37 38 39 40 41 42 43 44 45 46 47 48 49 50
000
FTUS41 KCTP 230340 AAA
TAFJST
TAF AMD
KJST 230340Z 2304/2324 20006KT P6SM SCT035 BKN070
     FM230900 21012G18KT 4SM -RA BR OVC012
     FM231500 24013G23KT 4SM -SHRA BR OVC009
     FM232000 24013G23KT 2SM -SHRA BR OVC007=

USA.gov is the U.S. government's official web portal to all federal, state and local government web resources and services.